Regional Weather Roundup
Issued by NWS

Home | Current Version | Previous Version | Text Only | Print | Product List | Glossary Off
Versions: 1 2 3 4 5 6 7 8 9 10 11 12 13 14 15 16 17 18 19 20 21 22 23 24 25 26 27 28 29 30 31 32 33 34 35 36 37 38 39 40 41 42 43 44 45 46 47 48 49 50

000
ASUS43 KLSX 160159
RWRMO

WEATHER SUMMARY FOR MISSOURI
NATIONAL WEATHER SERVICE SPRINGFIELD MO
900 PM CDT TUE APR 15 2014

NOTE: "FAIR" INDICATES FEW OR NO CLOUDS BELOW 12,000 FEET WITH NO
       SIGNIFICANT WEATHER AND/OR OBSTRUCTIONS TO VISIBILITY.
       CURRENT SKY AND/OR WEATHER CONDITIONS ARE NOT AVAILABLE FOR
       CHILLICOTHE AND FARMINGTON.

MOZ001>031-035>038-043-044-053-054-160300-
...NORTHERN AND WESTERN MISSOURI...

CITY           SKY/WX    TMP DP  RH WIND       PRES   REMARKS
KANSAS CTY INT MOCLDY    49  26  41 S13       30.02S
KANSAS C DTWN  MOCLDY    52  26  36 SE8G18    30.03S
LEE`S SUMMIT   MOCLDY    48  28  46 SE7       30.05S
ST JOSEPH      CLOUDY    50  28  42 S13       30.00S
CHILLICOTHE      N/A     47  27  45 SE8       30.08S
KIRKSVILLE     MOCLDY    36  26  67 S9        30.11R WCI  29

$$
MOZ066>068-077>081-088>096-101>105-160300-
...SOUTHWEST MISSOURI...

CITY           SKY/WX    TMP DP  RH WIND       PRES   REMARKS
SPRINGFIELD    MOCLDY    45  25  45 E5        30.12R
JOPLIN         MOCLDY    51  24  34 SE6       30.10R

$$
MOZ032>034-039>042-045>050-055>058-069>072-160300-
...CENTRAL MISSOURI...

CITY           SKY/WX    TMP DP  RH WIND       PRES   REMARKS
COLUMBIA       PTCLDY    44  23  43 SE5       30.14R
JEFFERSON CITY PTCLDY    42  27  55 E3        30.15R
ROLLA          PTCLDY    38  24  57 E6        30.14R
SEDALIA        PTCLDY    44  29  55 SE7       30.12R
OSAGE BEACH    MOCLDY    45  19  36 E3        30.15R

$$
MOZ051-052-059>065-160300-
...EAST CENTRAL MISSOURI...

CITY           SKY/WX    TMP DP  RH WIND       PRES   REMARKS
ST LOUIS INTL  PTCLDY    45  19  35 E5        30.19R
SPIRIT OF STL  PTCLDY    39  25  57 SE3       30.18R
ST CHARLES     CLEAR     41  28  60 SE5       30.18R

$$
MOZ072>076-082>087-097>100-106>115-160300-
...SOUTH CENTRAL AND SOUTHEAST MISSOURI...

CITY           SKY/WX    TMP DP  RH WIND       PRES   REMARKS
CAPE GIRARDEAU CLEAR     41  26  55 E7        30.21R
FARMINGTON     CLEAR     39  19  45 E3        30.20R
POPLAR BLUFF   CLEAR     44  30  57 MISG      30.19R
WEST PLAINS    PTCLDY    42  24  49 CALM      30.16R

$$



USA.gov is the U.S. government's official web portal to all federal, state and local government web resources and services.